This is the latest recevied weather packets stored in our database for station/object KB1FFS. If no packets are shown the sender has not sent any weather packets the latest 10 day(s).
| Time | Temp. | Humidity | Pressure | Rain* | Wind** | Luminosity | Snow |
|---|---|---|---|---|---|---|---|
| 1777471916 | 16.11° C | 74% | 1017.1 hPa | 0 mm | - | 58 W/m² | - |
| 1777471614 | 16.11° C | 74% | 1017.1 hPa | 0 mm | - | 46 W/m² | - |
| 1777471310 | 16.11° C | 75% | 1017.2 hPa | 0 mm | - | 42 W/m² | - |
| 1777469188 | 16.11° C | 75% | 1017.1 hPa | 0 mm | - | 25 W/m² | - |
| 1777468580 | 16.11° C | 75% | 1016.5 hPa | 0 mm | - | 30 W/m² | - |
| 1777468276 | 16.11° C | 75% | 1016.7 hPa | 0 mm | - | 21 W/m² | - |
| 1777467669 | 16.11° C | 75% | 1016.9 hPa | 0 mm | - | 17 W/m² | - |
| 1777465238 | 16.11° C | 74% | 1016.1 hPa | 0 mm | - | 5 W/m² | - |
| 1777464628 | 16.67° C | 74% | 1016.1 hPa | 0 mm | - | 4 W/m² | - |
| 1777462802 | 16.67° C | 72% | 1015.8 hPa | 0 mm | - | 0 W/m² | - |
| 1777462497 | 16.67° C | 73% | 1015.5 hPa | 0 mm | - | 0 W/m² | - |
| 1777462194 | 16.67° C | 74% | 1015.4 hPa | 0 mm | - | 0 W/m² | - |
| 1777461891 | 16.67° C | 73% | 1015.3 hPa | 0 mm | - | 0 W/m² | - |
| 1777461588 | 16.67° C | 74% | 1015.6 hPa | 0 mm | - | 0 W/m² | - |
| 1777461283 | 16.67° C | 75% | 1015.4 hPa | 0 mm | - | 0 W/m² | - |
| 1777460979 | 17.22° C | 76% | 1015.4 hPa | 0 mm | - | 0 W/m² | - |
| 1777460370 | 17.22° C | 75% | 1015.2 hPa | 0 mm | - | 0 W/m² | - |
| 1777460067 | 17.22° C | 75% | 1015.2 hPa | 0 mm | - | 0 W/m² | - |
| 1777459461 | 17.22° C | 74% | 1015.4 hPa | 0 mm | - | 0 W/m² | - |
| 1777459159 | 17.22° C | 74% | 1015.4 hPa | 0 mm | - | 0 W/m² | - |
| 1777458856 | 17.22° C | 73% | 1014.8 hPa | 0 mm | - | 0 W/m² | - |
| 1777458552 | 17.22° C | 73% | 1014.8 hPa | 0 mm | - | 0 W/m² | - |
| 1777458249 | 17.22° C | 72% | 1015.3 hPa | 0 mm | - | 0 W/m² | - |
| 1777457944 | 17.22° C | 72% | 1015.4 hPa | 0 mm | - | 0 W/m² | - |
| 1777457641 | 17.22° C | 71% | 1015.4 hPa | 0 mm | - | 0 W/m² | - |
* Rain latest hour (hover to see other rain measurements)
** Current wind speed in m/s (hover to see current wind gust speed)